Location: Newark
(34.0131°N, 4.3314°W)
Time: 15:24:20
(UTC+00:00)

Courier 1B Rocket - All Passes

Search period start: 20 October 2019 00:00
Search period end: 30 October 2019 00:00
Orbit: 920 x 1202 km, 28.2° (Epoch: 19 October)

Date Brightness Start Highest point End Pass type
(mag) Time Alt. Az. Time Alt. Az. Time Alt. Az.
20 Oct - 01:18:14 10° S 01:21:03 13° SSE 01:23:51 10° SE night (unlit)
20 Oct - 03:08:12 10° SW 03:13:44 33° SSE 03:19:15 10° E visible
20 Oct - 05:00:40 10° WSW 05:06:40 51° S 05:12:51 10° ESE visible
20 Oct - 06:53:47 10° W 06:59:44 44° S 07:06:01 10° ESE daylight
20 Oct - 08:47:38 10° WSW 08:52:42 24° SSW 08:58:00 10° SSE daylight
21 Oct - 02:07:47 10° SSW 02:12:56 26° SSE 02:18:00 10° ESE visible
21 Oct - 03:59:51 10° WSW 04:05:47 47° S 04:11:47 10° E visible
21 Oct - 05:52:50 10° W 05:58:50 49° S 06:05:03 10° ESE visible
21 Oct - 07:46:22 10° WSW 07:51:48 30° SSW 07:57:32 10° SE daylight
21 Oct - 09:42:37 10° SW 09:44:37 11° SSW 09:46:41 10° S daylight
22 Oct - 01:07:39 10° SSW 01:12:09 20° SSE 01:16:31 10° ESE night (unlit)
22 Oct - 02:59:05 10° SW 03:04:56 41° SSE 03:10:44 10° E visible
22 Oct - 04:51:56 10° WSW 04:57:56 51° S 05:04:04 10° ESE visible
22 Oct - 06:45:15 10° W 06:50:57 36° SSW 06:56:52 10° SE daylight
22 Oct - 08:39:54 10° WSW 08:43:46 16° SSW 08:47:46 10° S daylight
23 Oct - 00:08:03 10° S 00:11:20 14° SSE 00:14:33 10° ESE night (unlit)
23 Oct - 01:58:24 10° SW 02:04:05 34° SSE 02:09:39 10° E visible
23 Oct - 03:51:01 10° WSW 03:57:03 50° S 04:03:05 10° ESE visible
23 Oct - 05:44:14 10° W 05:50:04 43° S 05:56:05 10° ESE visible
23 Oct - 07:38:12 10° WSW 07:42:56 22° SSW 07:47:51 10° SSE daylight
24 Oct - 00:57:52 10° SW 01:03:15 27° SSE 01:08:27 10° ESE night (unlit)
24 Oct - 02:50:07 10° WSW 02:56:10 47° S 03:02:06 10° E visible
24 Oct - 04:43:14 10° W 04:49:12 48° S 04:55:14 10° ESE visible
24 Oct - 06:36:52 10° WSW 06:42:07 28° SSW 06:47:31 10° SE daylight
24 Oct - 08:34:22 10° SSW 08:34:50 10° SSW 08:35:19 10° SSW daylight
24 Oct - 23:57:34 10° SSW 00:02:25 21° SSE 00:07:05 10° ESE night (unlit)
25 Oct - 01:49:14 10° WSW 01:55:18 42° SSE 02:01:08 10° E visible
25 Oct - 03:42:15 10° WSW 03:48:20 51° S 03:54:21 10° ESE visible
25 Oct - 05:35:42 10° W 05:41:18 35° SSW 05:46:59 10° SE visible
25 Oct - 07:30:35 10° WSW 07:34:02 15° SSW 07:37:33 10° S daylight
25 Oct - 22:57:43 10° S 23:01:34 16° SSE 23:05:17 10° ESE night (unlit)
26 Oct - 00:48:26 10° SW 00:54:25 35° SSE 01:00:07 10° E night (unlit)
26 Oct - 02:41:14 10° WSW 02:47:26 51° S 02:53:27 10° ESE visible
26 Oct - 04:34:36 10° W 04:40:27 42° SSW 04:46:18 10° ESE visible
26 Oct - 06:28:44 10° WSW 06:33:15 21° SSW 06:37:50 10° SSE daylight
26 Oct - 21:59:14 10° SSE 22:00:41 11° SSE 22:02:07 10° SE night (unlit)
26 Oct - 23:47:46 10° SW 23:53:32 29° SSE 23:59:00 10° ESE night (unlit)
27 Oct - 01:40:13 10° WSW 01:46:32 48° S 01:52:33 10° E night (unlit)
27 Oct - 03:33:30 10° W 03:39:36 48° S 03:45:33 10° ESE visible
27 Oct - 05:27:18 10° WSW 05:32:27 28° SSW 05:37:40 10° SE visible
27 Oct - 22:47:20 10° SSW 22:52:38 23° SSE 22:57:41 10° ESE night (unlit)
28 Oct - 00:39:13 10° WSW 00:45:36 43° S 00:51:37 10° E night (unlit)
28 Oct - 02:32:24 10° WSW 02:38:42 51° S 02:44:45 10° ESE visible
28 Oct - 04:26:01 10° W 04:31:40 35° SSW 04:37:14 10° SE visible
28 Oct - 06:21:10 10° WSW 06:24:20 14° SSW 06:27:31 10° S daylight
28 Oct - 21:47:17 10° SSW 21:51:43 17° SSE 21:55:58 10° ESE night (unlit)
28 Oct - 23:38:19 10° SW 23:44:40 37° SSE 23:50:38 10° E night (unlit)
29 Oct - 01:31:17 10° WSW 01:37:46 52° S 01:43:55 10° ESE night (unlit)
29 Oct - 03:24:49 10° W 03:30:49 42° SSW 03:36:40 10° ESE visible
29 Oct - 05:19:08 10° WSW 05:23:35 20° SSW 05:28:01 10° SSE visible
29 Oct - 20:48:11 10° S 20:50:47 12° SSE 20:53:19 10° SE visible
29 Oct - 22:37:33 10° SW 22:43:43 31° SSE 22:49:32 10° ESE night (unlit)
